Content
SEND FEEDBACK

Daily
Averages
Monthly
Summary
United States of America

SOUTH LAKE TAHOE, CALIFORNIA


Home > North America > United States > California
Elevation: 1908 meters     Latitude: 38 53N     Longitude: 119 59W

WEATHER
 
SELECT A DAY
Number of Records: 178,656;   Date Range: 1/1/95 - 12/19/14
 
SHARE

PRINT THIS DATA

[ ← Previous Day ]
WEATHER ALMANAC - 10 JANUARY, 2013
[ Next Day → ]
[ °F ]   °C
Weather ElementAverageHighLow
Temperature-7.2 °C-2.8 °C (1:53 pm)-12.8 °C (4:53 am)
Dewpoint-11.5 °C-7.8 °C (12:53 am)-15.6 °C (4:53 am)
Humidity72.8 %86 % (1:05 am)42 % (12:53 pm)
Barometer1011.5 hPa1017.6 hPa (6:53 pm)1007.8 hPa (12:53 am)
Wind Speed3.9 km/h16.7 km/h (2:27 pm)
Wind Gust25.9 km/h (2:27 pm)
Weather ElementAverage
Visibility9.8 km
Wind DirectionNNE (29.6 °)

Weather ElementTotal
Precipitation5.84 mm
Heating Degree Days26.1 (Base 18.3)
Averaged from 46 records on 10 January, 2013
WEATHER CONDITIONS BREAKOUT
WIND DIRECTION BREAKOUT
WEATHER BY HOUR - 10 JANUARY, 2013
[ °F ]   °C
Local TimeTemperatureDewpointHumidityBarometerVisibilityWind DirectionWind SpeedGust SpeedPrecipitationEventsConditions
12:28 AM-4 °C-8 °C74 %1008.8 hPa1.3 kmCalm0.51 mmSnowLight Snow
12:35 AM-5 °C-8 °C80 %1008.8 hPa0.3 kmCalm0.76 mmSnowHeavy Snow
12:53 AM-5 °C-7.8 °C81 %1007.8 hPa1.3 kmCalm1.02 mmSnowLight Snow
12:59 AM-5 °C-8 °C80 %1009.1 hPa1.3 kmCalm0 mmSnowLight Snow
1:05 AM-6 °C-8 °C86 %1009.1 hPa1.9 kmNNE (30°)5.6 km/h0 mmSnowLight Snow
1:12 AM-6 °C-9 °C80 %1009.1 hPa4.8 kmNNE (30°)7.4 km/h0 mmSnowLight Snow
1:22 AM-7 °C-9 °C86 %1009.5 hPa6.4 kmCalm0 mmSnowLight Snow
1:31 AM-8 °C-10 °C86 %1009.5 hPa12.9 kmVariable5.6 km/h0 mmSnowLight Snow
1:44 AM-6 °C-13 °C58 %1009.8 hPa16.1 kmVariable11.1 km/h0 mmPartly Cloudy
1:53 AM-6.1 °C-12.8 °C60 %1009.1 hPa16.1 kmVariable5.6 km/h0 mmClear
2:53 AM-10 °C-13.3 °C77 %1010.2 hPa16.1 kmCalmClear
3:53 AM-12.2 °C-15 °C80 %1011.2 hPa16.1 kmCalm0.25 mmClear
4:53 AM-12.8 °C-15.6 °C80 %1011.2 hPa16.1 kmCalmClear
5:53 AM-11.7 °C-14.4 °C81 %1010.8 hPa16.1 kmCalmMostly Cloudy
6:53 AM-11.7 °C-14.4 °C81 %1011.9 hPa16.1 kmCalmPartly Cloudy
7:53 AM-11.1 °C-13.9 °C80 %1012.9 hPa16.1 kmCalmPartly Cloudy
8:53 AM-8.3 °C-10.6 °C84 %1012.9 hPa16.1 kmCalmOvercast
9:53 AM-5.6 °C-12.2 °C60 %1012.9 hPa16.1 kmCalmPartly Cloudy
10:53 AM-5.6 °C-13.9 °C53 %1013.2 hPa16.1 kmVariable5.6 km/hPartly Cloudy
11:53 AM-5 °C-14.4 °C48 %1012.5 hPa16.1 kmVariable7.4 km/hMostly Cloudy
12:53 PM-4.4 °C-15.6 °C42 %1011.5 hPa16.1 kmNE (40°)9.3 km/hMostly Cloudy
1:53 PM-2.8 °C-13.9 °C43 %1011.2 hPa16.1 kmVariable11.1 km/hMostly Cloudy
2:17 PM-6 °C-10 °C74 %1009.5 hPa4 kmNE (40°)13 km/h0 mmSnowLight Snow
2:27 PM-6 °C-11 °C68 %1009.8 hPa1.9 kmNNE (20°)16.7 km/h25.9 km/h0 mmSnowLight Snow
2:48 PM-6 °C-10 °C74 %1010.2 hPa0.3 kmNE (40°)9.3 km/h0 mmSnowHeavy Snow
2:53 PM-6.1 °C-10 °C74 %1014.2 hPa0.8 kmENE (60°)5.6 km/h0 mmSnowSnow
3:02 PM-6 °C-10 °C74 %1010.2 hPa3.2 kmCalm0 mmSnowLight Snow
3:04 PM-6 °C-10 °C74 %1010.2 hPa8 kmCalm0 mmSnowLight Snow
3:18 PM-6 °C-11 °C68 %1010.2 hPa4 kmNE (40°)7.4 km/h0 mmSnowLight Snow
3:26 PM-6 °C-11 °C68 %1010.2 hPa2.4 kmCalm0 mmSnowLight Snow
3:31 PM-6 °C-11 °C68 %1010.2 hPa4.8 kmCalm0 mmSnowLight Snow
3:53 PM-6.1 °C-10.6 °C71 %1015.2 hPa12.9 kmCalm0 mmOvercast
4:00 PM-6 °C-11 °C68 %1010.5 hPa3.2 kmCalm0 mmSnowLight Snow
4:03 PM-6 °C-12 °C63 %1010.5 hPa1.3 kmNNE (30°)11.1 km/h0.25 mmSnowLight Snow
4:15 PM-6 °C-9 °C80 %1010.5 hPa0.3 kmNNE (30°)7.4 km/h0.51 mmSnowHeavy Snow
4:22 PM-7 °C-9 °C86 %1010.8 hPa1.6 kmNE (40°)5.6 km/h0.51 mmSnowLight Snow
4:27 PM-7 °C-10 °C80 %1010.8 hPa4.8 kmCalm0.51 mmSnowLight Snow
4:35 PM-7 °C-10 °C80 %1010.8 hPa14.5 kmCalm0.51 mmMostly Cloudy
4:37 PM-7 °C-10 °C80 %1010.8 hPa16.1 kmCalm0.51 mmScattered Clouds
4:53 PM-6.7 °C-10 °C78 %1015.9 hPa16.1 kmSSW (210°)5.6 km/h0.51 mmMostly Cloudy
5:53 PM-8.3 °C-11.7 °C77 %1016.3 hPa16.1 kmCalmPartly Cloudy
6:53 PM-11.1 °C-13.9 °C80 %1017.6 hPa16.1 kmSW (230°)5.6 km/hClear
8:53 PM-10.6 °C-13.9 °C77 %1017.6 hPa16.1 kmSSE (150°)9.3 km/h0 mmOvercast
9:53 PM-9.4 °C-13.3 °C74 %1015.9 hPa16.1 kmSouth (170°)7.4 km/hOvercast
10:53 PM-11.7 °C-15.6 °C73 %1016.9 hPa16.1 kmSSW (200°)5.6 km/hClear
11:53 PM-7.8 °C-13.9 °C62 %1015.9 hPa16.1 kmCalmOvercast
Hourly data recorded from KTVL, located 0 kilometers away from South Lake Tahoe, California







STORIES FROM OUR PARTNERS